Time,TemperatureF,DewpointF,PressureIn,WindDirection,WindDirectionDegrees,WindSpeedMPH,WindSpeedGustMPH,Humidity,HourlyPrecipIn,Conditions,Clouds,dailyrainin,SoftwareType,DateUTC
2013-04-02 00:01:00,49.0,44.0,30.14,SW,216,3.0,6.0,84,0.00,,,0.00,,2013-04-02 07:01:00,
2013-04-02 00:11:00,49.0,44.0,30.14,SW,216,3.0,6.0,84,0.00,,,0.00,,2013-04-02 07:11:00,
2013-04-02 00:21:00,49.0,44.0,30.14,South,186,1.0,7.0,84,0.00,,,0.00,,2013-04-02 07:21:00,
2013-04-02 00:31:00,49.0,44.0,30.14,South,171,2.0,6.0,84,0.00,,,0.00,,2013-04-02 07:31:00,
2013-04-02 00:42:00,49.0,44.0,30.14,South,171,2.0,6.0,84,0.00,,,0.00,,2013-04-02 07:42:00,
2013-04-02 00:52:00,49.0,44.0,30.15,South,190,4.0,7.0,83,0.00,,,0.00,,2013-04-02 07:52:00,
2013-04-02 01:01:00,49.0,44.0,30.15,SSE,164,4.0,8.0,83,0.00,,,0.00,,2013-04-02 08:01:00,
2013-04-02 01:12:00,49.0,44.0,30.15,SSE,164,4.0,8.0,83,0.00,,,0.00,,2013-04-02 08:12:00,
2013-04-02 01:22:00,49.0,44.0,30.16,SSW,206,5.0,9.0,82,0.00,,,0.00,,2013-04-02 08:22:00,
2013-04-02 01:31:00,49.0,43.0,30.16,South,184,2.0,8.0,81,0.00,,,0.00,,2013-04-02 08:31:00,
2013-04-02 01:42:00,49.0,43.0,30.16,South,184,2.0,8.0,81,0.00,,,0.00,,2013-04-02 08:42:00,
2013-04-02 01:52:00,49.0,43.0,30.16,West,271,4.0,8.0,81,0.00,,,0.00,,2013-04-02 08:52:00,
2013-04-02 02:01:00,49.0,43.0,30.16,South,176,2.0,7.0,81,0.00,,,0.00,,2013-04-02 09:01:00,
2013-04-02 02:12:00,49.0,43.0,30.16,South,176,2.0,7.0,81,0.00,,,0.00,,2013-04-02 09:12:00,
2013-04-02 02:22:00,49.0,43.0,30.17,South,183,2.0,7.0,81,0.00,,,0.00,,2013-04-02 09:22:00,
2013-04-02 02:32:00,49.0,43.0,30.17,South,184,3.0,10.0,81,0.00,,,0.00,,2013-04-02 09:32:00,
2013-04-02 02:42:00,49.0,43.0,30.17,South,184,3.0,10.0,81,0.00,,,0.00,,2013-04-02 09:42:00,
2013-04-02 02:52:00,49.0,43.0,30.17,South,180,3.0,9.0,81,0.00,,,0.00,,2013-04-02 09:52:00,
2013-04-02 03:02:00,49.0,43.0,30.17,South,190,2.0,6.0,80,0.00,,,0.00,,2013-04-02 10:02:00,
2013-04-02 03:12:00,49.0,43.0,30.17,South,190,2.0,6.0,80,0.00,,,0.00,,2013-04-02 10:12:00,
2013-04-02 03:22:00,49.0,43.0,30.16,WSW,243,5.0,10.0,81,0.00,,,0.00,,2013-04-02 10:22:00,
2013-04-02 03:32:00,49.0,43.0,30.17,South,178,3.0,13.0,80,0.00,,,0.00,,2013-04-02 10:32:00,
2013-04-02 03:42:00,49.0,43.0,30.17,South,178,3.0,13.0,80,0.00,,,0.00,,2013-04-02 10:42:00,
2013-04-02 03:52:00,49.0,43.0,30.17,South,180,0.0,5.0,81,0.00,,,0.00,,2013-04-02 10:52:00,
2013-04-02 04:02:00,49.0,43.0,30.17,South,176,0.0,2.0,81,0.00,,,0.00,,2013-04-02 11:02:00,
2013-04-02 04:11:00,49.0,43.0,30.17,South,176,0.0,2.0,81,0.00,,,0.00,,2013-04-02 11:11:00,
2013-04-02 04:22:00,49.0,43.0,30.17,SSW,213,1.0,3.0,81,0.00,,,0.00,,2013-04-02 11:22:00,
2013-04-02 04:32:00,49.0,44.0,30.17,SSW,209,0.0,3.0,82,0.00,,,0.00,,2013-04-02 11:32:00,
2013-04-02 04:42:00,49.0,44.0,30.17,SSW,209,0.0,3.0,82,0.00,,,0.00,,2013-04-02 11:42:00,
2013-04-02 04:52:00,49.0,43.0,30.17,SSW,211,0.0,5.0,81,0.00,,,0.00,,2013-04-02 11:52:00,
2013-04-02 05:01:00,49.0,44.0,30.17,SW,218,1.0,4.0,82,0.00,,,0.00,,2013-04-02 12:01:00,
2013-04-02 05:11:00,49.0,44.0,30.17,SW,218,1.0,4.0,82,0.00,,,0.00,,2013-04-02 12:11:00,
2013-04-02 05:22:00,49.0,44.0,30.17,SSW,201,0.0,4.0,82,0.00,,,0.00,,2013-04-02 12:22:00,
2013-04-02 05:32:00,49.0,44.0,30.17,SSW,196,0.0,2.0,82,0.00,,,0.00,,2013-04-02 12:32:00,
2013-04-02 05:41:00,49.0,44.0,30.17,SSW,196,0.0,2.0,82,0.00,,,0.00,,2013-04-02 12:41:00,
2013-04-02 05:52:00,49.0,44.0,30.16,South,189,0.0,3.0,84,0.00,,,0.00,,2013-04-02 12:52:00,
2013-04-02 06:01:00,49.0,44.0,30.17,South,169,0.0,4.0,84,0.00,,,0.00,,2013-04-02 13:01:00,
2013-04-02 06:12:00,49.0,44.0,30.17,South,169,0.0,4.0,84,0.00,,,0.00,,2013-04-02 13:12:00,
2013-04-02 06:22:00,49.0,44.0,30.16,SSW,205,0.0,2.0,84,0.00,,,0.00,,2013-04-02 13:22:00,
2013-04-02 06:32:00,48.0,44.0,30.17,South,190,1.0,4.0,85,0.00,,,0.00,,2013-04-02 13:32:00,
2013-04-02 06:42:00,48.0,44.0,30.17,South,190,1.0,4.0,85,0.00,,,0.00,,2013-04-02 13:42:00,
2013-04-02 06:52:00,48.0,43.0,30.17,SW,215,1.0,5.0,84,0.00,,,0.00,,2013-04-02 13:52:00,
2013-04-02 07:02:00,48.0,43.0,30.17,SSW,201,1.0,5.0,84,0.00,,,0.00,,2013-04-02 14:02:00,
2013-04-02 07:11:00,48.0,43.0,30.17,SSW,201,1.0,5.0,84,0.00,,,0.00,,2013-04-02 14:11:00,
2013-04-02 07:22:00,48.0,43.0,30.16,WSW,238,1.0,3.0,84,0.00,,,0.00,,2013-04-02 14:22:00,
2013-04-02 07:32:00,48.0,43.0,30.16,SSW,201,0.0,1.0,84,0.00,,,0.00,,2013-04-02 14:32:00,
2013-04-02 07:42:00,48.0,43.0,30.16,SSW,201,0.0,1.0,84,0.00,,,0.00,,2013-04-02 14:42:00,
2013-04-02 07:52:00,48.0,43.0,30.16,SSW,213,0.0,4.0,83,0.00,,,0.00,,2013-04-02 14:52:00,
2013-04-02 08:01:00,48.0,43.0,30.16,SSW,213,0.0,1.0,84,0.00,,,0.00,,2013-04-02 15:01:00,
2013-04-02 08:11:00,48.0,43.0,30.16,SSW,213,0.0,1.0,84,0.00,,,0.00,,2013-04-02 15:11:00,
2013-04-02 08:21:00,47.0,43.0,30.17,SSW,213,0.0,2.0,85,0.00,,,0.00,,2013-04-02 15:21:00,
2013-04-02 08:33:00,48.0,43.0,30.17,SSW,212,1.0,3.0,84,0.00,,,0.00,,2013-04-02 15:33:00,
2013-04-02 08:42:00,48.0,43.0,30.17,SSW,212,1.0,3.0,84,0.00,,,0.00,,2013-04-02 15:42:00,
2013-04-02 08:55:00,49.0,44.0,30.17,West,261,0.0,2.0,84,0.00,,,0.00,,2013-04-02 15:55:00,
2013-04-02 09:02:00,49.0,44.0,30.17,SW,221,1.0,3.0,83,0.00,,,0.00,,2013-04-02 16:02:00,
2013-04-02 09:12:00,49.0,44.0,30.17,SW,221,1.0,3.0,83,0.00,,,0.00,,2013-04-02 16:12:00,
2013-04-02 09:23:00,49.0,44.0,30.17,SSW,205,0.0,2.0,83,0.00,,,0.00,,2013-04-02 16:23:00,
2013-04-02 09:33:00,50.0,45.0,30.18,SW,223,2.0,4.0,82,0.00,,,0.00,,2013-04-02 16:33:00,
2013-04-02 09:42:00,50.0,45.0,30.18,SW,223,2.0,4.0,82,0.00,,,0.00,,2013-04-02 16:42:00,
2013-04-02 09:53:00,50.0,45.0,30.18,SSW,192,0.0,3.0,84,0.00,,,0.00,,2013-04-02 16:53:00,
2013-04-02 10:02:00,51.0,46.0,30.17,SSE,149,0.0,2.0,82,0.00,,,0.00,,2013-04-02 17:02:00,
2013-04-02 10:12:00,51.0,46.0,30.17,SSE,149,0.0,2.0,82,0.00,,,0.00,,2013-04-02 17:12:00,
2013-04-02 10:23:00,51.0,45.0,30.17,SE,128,0.0,3.0,81,0.00,,,0.00,,2013-04-02 17:23:00,
2013-04-02 10:32:00,51.0,45.0,30.17,East,94,2.0,3.0,81,0.00,,,0.00,,2013-04-02 17:32:00,
2013-04-02 10:42:00,51.0,45.0,30.17,East,94,2.0,3.0,81,0.00,,,0.00,,2013-04-02 17:42:00,
2013-04-02 10:54:00,51.0,45.0,30.17,ESE,114,2.0,4.0,81,0.00,,,0.00,,2013-04-02 17:54:00,
2013-04-02 11:12:00,52.0,46.0,30.17,East,98,1.0,3.0,81,0.00,,,0.00,,2013-04-02 18:12:00,
2013-04-02 11:22:00,51.0,45.0,30.18,East,92,1.0,3.0,81,0.00,,,0.00,,2013-04-02 18:22:00,
2013-04-02 11:32:00,51.0,45.0,30.17,East,92,1.0,3.0,81,0.00,,,0.00,,2013-04-02 18:32:00,
2013-04-02 11:42:00,51.0,45.0,30.17,East,92,1.0,3.0,81,0.00,,,0.00,,2013-04-02 18:42:00,
2013-04-02 11:54:00,51.0,46.0,30.17,East,88,1.0,2.0,82,0.00,,,0.00,,2013-04-02 18:54:00,
2013-04-02 12:02:00,51.0,46.0,30.18,NE,52,0.0,3.0,82,0.00,,,0.00,,2013-04-02 19:02:00,
2013-04-02 12:12:00,51.0,46.0,30.18,NE,52,0.0,3.0,82,0.00,,,0.00,,2013-04-02 19:12:00,
2013-04-02 12:22:00,51.0,45.0,30.17,SSE,157,1.0,5.0,81,0.00,,,0.00,,2013-04-02 19:22:00,
2013-04-02 12:32:00,52.0,46.0,30.18,SSW,211,0.0,4.0,80,0.00,,,0.00,,2013-04-02 19:32:00,
2013-04-02 12:43:00,52.0,46.0,30.18,SSW,211,0.0,4.0,80,0.00,,,0.00,,2013-04-02 19:43:00,
2013-04-02 12:54:00,52.0,46.0,30.17,South,169,0.0,1.0,80,0.00,,,0.00,,2013-04-02 19:54:00,
2013-04-02 13:02:00,52.0,46.0,30.17,SSE,163,0.0,2.0,79,0.00,,,0.00,,2013-04-02 20:02:00,
2013-04-02 13:11:00,52.0,46.0,30.17,SSE,163,0.0,2.0,79,0.00,,,0.00,,2013-04-02 20:11:00,
2013-04-02 13:21:00,52.0,46.0,30.17,SE,144,0.0,2.0,79,0.00,,,0.00,,2013-04-02 20:21:00,
2013-04-02 13:32:00,52.0,46.0,30.17,SE,133,0.0,1.0,80,0.00,,,0.00,,2013-04-02 20:32:00,
2013-04-02 13:42:00,52.0,46.0,30.17,SE,133,0.0,1.0,80,0.00,,,0.00,,2013-04-02 20:42:00,
2013-04-02 14:02:00,53.0,47.0,30.17,East,95,0.0,2.0,81,0.00,,,0.00,,2013-04-02 21:02:00,
2013-04-02 14:12:00,53.0,47.0,30.17,East,95,0.0,2.0,81,0.00,,,0.00,,2013-04-02 21:12:00,
2013-04-02 14:22:00,52.0,46.0,30.17,East,95,1.0,2.0,80,0.00,,,0.00,,2013-04-02 21:22:00,
2013-04-02 14:33:00,53.0,47.0,30.17,East,95,0.0,2.0,80,0.00,,,0.00,,2013-04-02 21:33:00,
2013-04-02 14:42:00,53.0,47.0,30.17,East,95,0.0,2.0,80,0.00,,,0.00,,2013-04-02 21:42:00,
2013-04-02 14:55:00,53.0,47.0,30.18,East,98,0.0,2.0,79,0.00,,,0.00,,2013-04-02 21:55:00,
2013-04-02 15:03:00,53.0,46.0,30.17,ENE,68,1.0,3.0,78,0.00,,,0.00,,2013-04-02 22:03:00,
2013-04-02 15:13:00,53.0,46.0,30.17,ENE,68,1.0,3.0,78,0.00,,,0.00,,2013-04-02 22:13:00,
2013-04-02 15:23:00,54.0,47.0,30.17,SE,136,2.0,5.0,78,0.00,,,0.00,,2013-04-02 22:23:00,
2013-04-02 15:32:00,54.0,47.0,30.17,ENE,78,1.0,3.0,77,0.00,,,0.00,,2013-04-02 22:32:00,
2013-04-02 15:42:00,54.0,47.0,30.17,ENE,78,1.0,3.0,77,0.00,,,0.00,,2013-04-02 22:42:00,
2013-04-02 15:53:00,55.0,48.0,30.16,ESE,113,1.0,3.0,76,0.00,,,0.00,,2013-04-02 22:53:00,
2013-04-02 16:02:00,54.0,47.0,30.16,ESE,109,2.0,3.0,77,0.00,,,0.00,,2013-04-02 23:02:00,
2013-04-02 16:12:00,54.0,47.0,30.16,ESE,109,2.0,3.0,77,0.00,,,0.00,,2013-04-02 23:12:00,
2013-04-02 16:22:00,54.0,47.0,30.16,ESE,109,1.0,3.0,77,0.00,,,0.00,,2013-04-02 23:22:00,
2013-04-02 16:32:00,53.0,47.0,30.16,East,90,1.0,3.0,79,0.00,,,0.00,,2013-04-02 23:32:00,
2013-04-02 16:42:00,53.0,47.0,30.16,East,90,1.0,3.0,79,0.00,,,0.00,,2013-04-02 23:42:00,
2013-04-02 16:53:00,54.0,47.0,30.16,ESE,105,1.0,3.0,78,0.00,,,0.00,,2013-04-02 23:53:00,
2013-04-02 17:02:00,54.0,47.0,30.15,ESE,110,1.0,2.0,78,0.00,,,0.00,,2013-04-03 00:02:00,
2013-04-02 17:12:00,54.0,47.0,30.15,ESE,110,1.0,2.0,78,0.00,,,0.00,,2013-04-03 00:12:00,
2013-04-02 17:22:00,55.0,48.0,30.15,SE,134,0.0,2.0,78,0.00,,,0.00,,2013-04-03 00:22:00,
2013-04-02 17:32:00,54.0,47.0,30.15,ESE,110,0.0,3.0,78,0.00,,,0.00,,2013-04-03 00:32:00,
2013-04-02 17:43:00,54.0,47.0,30.15,ESE,110,0.0,3.0,78,0.00,,,0.00,,2013-04-03 00:43:00,
2013-04-02 17:54:00,54.0,47.0,30.15,SE,135,1.0,3.0,78,0.00,,,0.00,,2013-04-03 00:54:00,
2013-04-02 18:02:00,54.0,47.0,30.15,ESE,118,0.0,2.0,78,0.00,,,0.00,,2013-04-03 01:02:00,
2013-04-02 18:21:00,54.0,47.0,30.15,SE,126,1.0,3.0,78,0.00,,,0.00,,2013-04-03 01:21:00,
2013-04-02 18:32:00,54.0,48.0,30.14,ESE,118,0.0,2.0,79,0.00,,,0.00,,2013-04-03 01:32:00,
2013-04-02 18:42:00,54.0,48.0,30.14,ESE,118,0.0,2.0,79,0.00,,,0.00,,2013-04-03 01:42:00,
2013-04-02 18:53:00,54.0,48.0,30.14,ESE,117,0.0,2.0,79,0.00,,,0.00,,2013-04-03 01:53:00,
2013-04-02 19:02:00,54.0,48.0,30.14,South,169,0.0,1.0,79,0.00,,,0.00,,2013-04-03 02:02:00,
2013-04-02 19:12:00,54.0,48.0,30.14,South,169,0.0,1.0,79,0.00,,,0.00,,2013-04-03 02:12:00,
2013-04-02 19:22:00,54.0,48.0,30.14,ESE,113,0.0,2.0,79,0.00,,,0.00,,2013-04-03 02:22:00,
2013-04-02 19:32:00,53.0,47.0,30.14,SW,225,0.0,5.0,80,0.00,,,0.00,,2013-04-03 02:32:00,
2013-04-02 19:42:00,53.0,47.0,30.14,SW,225,0.0,5.0,80,0.00,,,0.00,,2013-04-03 02:42:00,
2013-04-02 19:53:00,53.0,47.0,30.14,SW,225,0.0,0.0,81,0.00,,,0.00,,2013-04-03 02:53:00,
2013-04-02 20:02:00,53.0,47.0,30.14,SW,221,0.0,2.0,80,0.00,,,0.00,,2013-04-03 03:02:00,
2013-04-02 20:12:00,53.0,47.0,30.14,SW,221,0.0,2.0,80,0.00,,,0.00,,2013-04-03 03:12:00,
2013-04-02 20:22:00,51.0,45.0,30.15,SW,221,0.0,1.0,81,0.00,,,0.00,,2013-04-03 03:22:00,
2013-04-02 20:33:00,51.0,46.0,30.15,SW,221,0.0,0.0,83,0.00,,,0.00,,2013-04-03 03:33:00,
2013-04-02 20:43:00,51.0,46.0,30.15,SW,221,0.0,0.0,83,0.00,,,0.00,,2013-04-03 03:43:00,
2013-04-02 20:54:00,50.0,45.0,30.16,SW,221,0.0,0.0,84,0.00,,,0.00,,2013-04-03 03:54:00,
2013-04-02 21:02:00,49.0,45.0,30.16,SW,221,0.0,1.0,85,0.00,,,0.00,,2013-04-03 04:02:00,
2013-04-02 21:12:00,49.0,45.0,30.16,SW,221,0.0,1.0,85,0.00,,,0.00,,2013-04-03 04:12:00,
2013-04-02 21:23:00,49.0,45.0,30.16,SW,221,0.0,1.0,85,0.00,,,0.00,,2013-04-03 04:23:00,
2013-04-02 21:32:00,48.0,44.0,30.17,SW,221,0.0,1.0,85,0.00,,,0.00,,2013-04-03 04:32:00,
2013-04-02 21:42:00,48.0,44.0,30.17,SW,221,0.0,1.0,85,0.00,,,0.00,,2013-04-03 04:42:00,
2013-04-02 21:53:00,48.0,44.0,30.17,SW,221,0.0,0.0,85,0.00,,,0.00,,2013-04-03 04:53:00,
2013-04-02 22:12:00,48.0,44.0,30.17,SW,221,0.0,0.0,85,0.00,,,0.00,,2013-04-03 05:12:00,
2013-04-02 22:22:00,48.0,44.0,30.17,SW,221,0.0,1.0,86,0.00,,,0.00,,2013-04-03 05:22:00,
2013-04-02 22:32:00,48.0,44.0,30.17,SW,221,0.0,0.0,86,0.00,,,0.00,,2013-04-03 05:32:00,
2013-04-02 22:41:00,48.0,44.0,30.17,SW,221,0.0,0.0,86,0.00,,,0.00,,2013-04-03 05:41:00,
2013-04-02 22:52:00,47.0,43.0,30.17,SW,221,0.0,1.0,87,0.00,,,0.00,,2013-04-03 05:52:00,
2013-04-02 23:02:00,47.0,43.0,30.18,SW,221,0.0,2.0,87,0.00,,,0.00,,2013-04-03 06:02:00,
2013-04-02 23:12:00,47.0,43.0,30.18,SW,221,0.0,2.0,87,0.00,,,0.00,,2013-04-03 06:12:00,
2013-04-02 23:21:00,47.0,44.0,30.17,SW,221,1.0,1.0,88,0.00,,,0.00,,2013-04-03 06:21:00,
2013-04-02 23:31:00,46.0,43.0,30.17,SW,221,0.0,1.0,88,0.00,,,0.00,,2013-04-03 06:31:00,
2013-04-02 23:42:00,46.0,43.0,30.17,SW,221,0.0,1.0,88,0.00,,,0.00,,2013-04-03 06:42:00,
2013-04-02 23:52:00,46.0,43.0,30.17,SW,221,1.0,2.0,88,0.00,,,0.00,,2013-04-03 06:52:00,